FW8253 Weather Reports


time (UTC)temp
F
wind
direction
speed
knots
gust
knots
rain 1hr
in
rain 24hr
in
rain mn
in
humidity
%
barometer
mb
20260504204527 81 249 0.0 0.0 0.00 0.00 0.00 36 1016.4
20260504204026 82 228 0.0 0.0 0.00 0.00 0.00 40 1016.5
20260504203523 82 273 0.0 0.0 0.00 0.00 0.00 33 1016.6
20260504203021 81 243 0.0 0.0 0.00 0.00 0.00 41 1016.6
20260504202516 82 245 0.0 0.0 0.00 0.00 0.00 37 1016.6
20260504202013 82 216 0.0 0.0 0.00 0.00 0.00 42 1016.7
20260504201510 82 203 0.0 0.0 0.00 0.00 0.00 37 1016.6
20260504201008 81 234 0.0 0.0 0.00 0.00 0.00 39 1016.4
20260504200504 81 250 0.0 0.0 0.00 0.00 0.00 40 1016.8
20260504200001 82 232 0.0 0.0 0.00 0.00 0.00 36 1016.7
20260504195457 82 244 0.0 0.0 0.00 0.00 0.00 37 1016.9
20260504194954 82 236 0.0 0.0 0.00 0.00 0.00 39 1017.2
20260504194450 82 246 0.0 0.0 0.00 0.00 0.00 39 1017.0
20260504193945 82 173 0.0 0.0 0.00 0.00 0.00 37 1017.0
20260504193443 82 231 0.0 0.0 0.00 0.00 0.00 40 1016.9
20260504192942 83 223 0.0 0.0 0.00 0.00 0.00 37 1017.1
20260504192438 83 229 0.0 0.0 0.00 0.00 0.00 40 1017.2
20260504191937 82 43 0.0 0.0 0.00 0.00 0.00 36 1017.4
20260504191435 82 280 0.0 0.0 0.00 0.00 0.00 38 1017.3
20260504190930 82 72 0.0 0.0 0.00 0.00 0.00 34 1017.4
20260504190426 81 193 0.0 0.0 0.00 0.00 0.00 40 1017.5
20260504185923 81 190 0.0 0.0 0.00 0.00 0.00 34 1017.6
20260504185420 82 250 0.0 0.0 0.00 0.00 0.00 38 1017.6
20260504184916 82 247 0.0 0.0 0.00 0.00 0.00 37 1017.8
20260504184412 82 79 0.0 0.0 0.00 0.00 0.00 36 1017.7
20260504183908 80 74 0.0 0.0 0.00 0.00 0.00 39 1017.8
20260504183405 80 74 0.0 0.0 0.00 0.00 0.00 38 1017.8
20260504182903 80 73 0.0 0.0 0.00 0.00 0.00 36 1018.0
20260504182400 80 74 0.0 0.0 0.00 0.00 0.00 35 1017.9
20260504181856 80 112 0.0 0.0 0.00 0.00 0.00 35 1017.9
20260504181354 80 138 0.0 0.0 0.00 0.00 0.00 35 1017.8
20260504180853 80 116 0.0 0.0 0.00 0.00 0.00 34 1018.2
20260504180351 81 124 0.0 0.0 0.00 0.00 0.00 34 1018.2
20260504175849 80 124 0.0 0.0 0.00 0.00 0.00 39 1018.3
20260504175345 80 116 0.0 0.0 0.00 0.00 0.00 35 1018.2
20260504174843 80 114 0.0 0.0 0.00 0.00 0.00 33 1018.4
20260504174341 81 71 0.0 0.0 0.00 0.00 0.00 36 1018.4
20260504173837 80 71 0.0 0.0 0.00 0.00 0.00 36 1018.6
20260504173334 79 304 0.0 0.0 0.00 0.00 0.00 36 1018.5
20260504172831 79 344 0.0 0.0 0.00 0.00 0.00 39 1018.6
20260504172328 78 351 0.0 0.0 0.00 0.00 0.00 39 1018.5
20260504171824 79 47 0.0 0.0 0.00 0.00 0.00 39 1018.8
20260504171321 79 52 0.0 0.0 0.00 0.00 0.00 36 1018.8
20260504170818 79 56 0.0 0.0 0.00 0.00 0.00 41 1018.8
20260504170315 78 59 0.0 0.0 0.00 0.00 0.00 40 1018.8
20260504160233 76 349 0.0 0.0 0.00 0.00 0.00 43 1019.4
20260504150659 73 287 0.0 0.0 0.00 0.00 0.00 53 1020.1
20260504150155 73 207 0.0 0.0 0.00 0.00 0.00 56 1020.0
20260504141124 68 227 0.0 0.0 0.00 0.00 0.00 66 1020.2
20260504140621 66 238 0.0 0.0 0.00 0.00 0.00 64 1020.4
20260504140117 66 233 0.0 0.0 0.00 0.00 0.00 66 1020.4
20260504130545 54 177 0.0 0.0 0.00 0.00 0.00 99 1020.5
20260504110433 44 177 0.0 0.0 0.00 0.00 0.00 99 1020.0
20260504100349 45 177 0.0 0.0 0.00 0.00 0.00 99 1019.8
20260504081743 47 177 0.0 0.0 0.00 0.00 0.00 99 1019.1
20260504081239 47 177 0.0 0.0 0.00 0.00 0.00 99 1019.2
20260504080735 47 177 0.0 0.0 0.00 0.00 0.00 99 1019.3
20260504080232 47 177 0.0 0.0 0.00 0.00 0.00 99 1019.4
20260504070200 47 177 0.0 0.0 0.00 0.00 0.00 99 1019.5
20260504060120 48 207 0.0 0.0 0.00 0.00 0.00 99 1020.2
20260504050548 47 207 0.0 0.0 0.00 0.00 0.00 98 1020.1
20260504045542 47 207 0.0 0.0 0.00 0.00 0.00 98 1020.0
20260504045037 47 207 0.0 0.0 0.00 0.00 0.00 98 1019.9
20260504044535 47 207 0.0 0.0 0.00 0.00 0.00 98 1020.0
20260504044032 47 207 0.0 0.0 0.00 0.00 0.00 98 1019.9
20260504043529 47 207 0.0 0.0 0.00 0.00 0.00 98 1019.8
20260504043026 47 207 0.0 0.0 0.00 0.00 0.00 98 1019.7
20260504042523 47 207 0.0 0.0 0.00 0.00 0.00 98 1019.7
20260504042020 48 207 0.0 0.0 0.00 0.00 0.00 98 1019.6
20260504041516 48 207 0.0 0.0 0.00 0.00 0.00 97 1019.6
20260504041012 48 207 0.0 0.0 0.00 0.00 0.00 97 1019.6
20260504040510 48 207 0.0 0.0 0.00 0.00 0.00 97 1019.7
20260504040006 48 207 0.0 0.0 0.00 0.00 0.00 97 1019.7
20260504035503 48 207 0.0 0.0 0.00 0.00 0.00 97 1019.6
20260504034959 48 207 0.0 0.0 0.00 0.00 0.00 97 1019.7
20260504034457 48 207 0.0 0.0 0.00 0.00 0.00 96 1019.4
20260504033954 49 207 0.0 0.0 0.00 0.00 0.00 96 1019.5
20260504033452 49 207 0.0 0.0 0.00 0.00 0.00 96 1019.8
20260504032949 49 207 0.0 0.0 0.00 0.00 0.00 95 1019.5
20260504032446 49 207 0.0 0.0 0.00 0.00 0.00 96 1019.6
20260504031942 49 207 0.0 0.0 0.00 0.00 0.00 95 1019.7
20260504031439 49 207 0.0 0.0 0.00 0.00 0.00 95 1019.6
20260504030936 50 207 0.0 0.0 0.00 0.00 0.00 95 1019.5
20260504030433 50 207 0.0 0.0 0.00 0.00 0.00 94 1019.9
20260504025929 50 207 0.0 0.0 0.00 0.00 0.00 94 1019.7
20260504025426 50 207 0.0 0.0 0.00 0.00 0.00 94 1019.7
20260504024923 50 207 0.0 0.0 0.00 0.00 0.00 94 1019.6
20260504024420 50 207 0.0 0.0 0.00 0.00 0.00 94 1019.6
20260504023917 51 207 0.0 0.0 0.00 0.00 0.00 94 1019.6
20260504023413 51 207 0.0 0.0 0.00 0.00 0.00 94 1019.4
20260504022909 51 207 0.0 0.0 0.00 0.00 0.00 93 1019.6
20260504022406 51 207 0.0 0.0 0.00 0.00 0.00 93 1019.5
20260504021903 52 207 0.0 0.0 0.00 0.00 0.00 93 1019.2
20260504021400 52 207 0.0 0.0 0.00 0.00 0.00 93 1019.4
20260504020857 52 207 0.0 0.0 0.00 0.00 0.00 92 1019.3
20260504020353 53 207 0.0 0.0 0.00 0.00 0.00 93 1019.0
20260504015849 53 207 0.0 0.0 0.00 0.00 0.00 92 1019.3
20260504015346 53 207 0.0 0.0 0.00 0.00 0.00 92 1019.0
20260504014842 53 208 0.0 0.0 0.00 0.00 0.00 93 1018.9
20260504014338 53 208 0.0 0.0 0.00 0.00 0.00 93 1018.7
20260504013836 54 208 0.0 0.0 0.00 0.00 0.00 92 1018.9
20260504013333 54 208 0.0 0.0 0.00 0.00 0.00 92 1018.8
20260504012830 55 208 0.0 0.0 0.00 0.00 0.00 92 1018.8
20260504012328 55 208 0.0 0.0 0.00 0.00 0.00 92 1018.6
20260504011825 55 207 0.0 0.0 0.00 0.00 0.00 91 1018.8
20260504011321 56 207 0.0 0.0 0.00 0.00 0.00 90 1018.3
20260504010817 56 207 0.0 0.0 0.00 0.00 0.00 89 1018.5
20260504010313 56 208 0.0 0.0 0.00 0.00 0.00 88 1018.5
20260504005810 57 207 0.0 0.0 0.00 0.00 0.00 87 1018.4
20260504005307 57 207 0.0 0.0 0.00 0.00 0.00 86 1018.3
20260504004804 58 208 0.0 0.0 0.00 0.00 0.00 84 1018.3
20260504004302 58 207 0.0 0.0 0.00 0.00 0.00 83 1018.3
20260504003758 59 208 0.0 0.0 0.00 0.00 0.00 81 1018.2
20260504003255 59 208 0.0 0.0 0.00 0.00 0.00 79 1018.3
20260504002751 60 208 0.0 0.0 0.00 0.00 0.00 78 1018.0
20260504002249 60 208 0.0 0.0 0.00 0.00 0.00 76 1018.2
20260504001746 61 208 0.0 0.0 0.00 0.00 0.00 73 1017.9
20260504001243 61 208 0.0 0.0 0.00 0.00 0.00 72 1017.9
20260504000740 62 208 0.0 0.0 0.00 0.00 0.00 71 1017.8
20260504000237 63 208 0.0 0.0 0.00 0.00 0.00 72 1017.8
20260503235735 63 208 0.0 0.0 0.00 0.00 0.00 70 1017.8
20260503235232 64 208 0.0 0.0 0.00 0.00 0.00 67 1018.0
20260503234730 64 208 0.0 0.0 0.00 0.00 0.00 64 1017.8
20260503234227 65 208 0.0 0.0 0.00 0.00 0.00 61 1017.9
20260503233725 66 209 0.0 0.0 0.00 0.00 0.00 61 1017.8
20260503233220 66 195 0.0 0.0 0.00 0.00 0.00 59 1017.8
20260503232717 67 193 0.0 0.0 0.00 0.00 0.00 58 1017.8
20260503232214 67 251 0.0 0.0 0.00 0.00 0.00 55 1017.8
20260503231713 68 251 0.0 0.0 0.00 0.00 0.00 52 1017.7
20260503231209 68 251 0.0 0.0 0.00 0.00 0.00 48 1017.6
20260503230705 68 251 0.0 0.0 0.00 0.00 0.00 48 1017.7
20260503230202 69 251 0.0 0.0 0.00 0.00 0.00 47 1017.6
20260503225659 69 251 0.0 0.0 0.00 0.00 0.00 50 1017.8
20260503225154 69 251 0.0 0.0 0.00 0.00 0.00 49 1017.6
20260503224651 69 251 0.0 0.0 0.00 0.00 0.00 51 1017.7
20260503224149 70 252 0.0 0.0 0.00 0.00 0.00 49 1017.8
20260503223647 71 227 0.0 0.0 0.00 0.00 0.00 45 1018.2
20260503223143 71 226 0.0 0.0 0.00 0.00 0.00 42 1017.9
20260503222640 71 214 0.0 0.0 0.00 0.00 0.00 45 1017.9
20260503222138 71 210 0.0 0.0 0.00 0.00 0.00 40 1018.0
20260503221636 71 207 0.0 0.0 0.00 0.00 0.00 43 1017.8
20260503221133 72 207 0.0 0.0 0.00 0.00 0.00 44 1018.1
20260503220630 72 220 0.0 0.0 0.00 0.00 0.00 45 1018.1
20260503220127 73 238 0.0 0.0 0.00 0.00 0.00 41 1018.1
20260503215624 73 237 0.0 0.0 0.00 0.00 0.00 44 1018.0
20260503215120 73 162 0.0 0.0 0.00 0.00 0.00 41 1017.8
20260503214619 74 182 0.0 0.0 0.00 0.00 0.00 46 1018.1
20260503214115 75 238 0.0 0.0 0.00 0.00 0.00 40 1018.1
20260503213614 75 212 0.0 0.0 0.00 0.00 0.00 38 1018.0
20260503213110 75 246 0.0 0.0 0.00 0.00 0.00 42 1018.2
20260503212608 76 248 0.0 0.0 0.00 0.00 0.00 41 1018.1
20260503212105 74 244 0.0 0.0 0.00 0.00 0.00 42 1018.2
20260503211602 74 111 0.0 0.0 0.00 0.00 0.00 38 1018.2
20260503211057 74 230 0.0 0.0 0.00 0.00 0.00 40 1018.0
20260503210554 75 156 0.0 0.0 0.00 0.00 0.00 42 1018.2
20260503210050 75 282 0.0 0.0 0.00 0.00 0.00 40 1018.0
20260503205547 75 267 0.0 0.0 0.00 0.00 0.00 41 1018.1
20260503205044 75 141 0.0 0.0 0.00 0.00 0.00 38 1018.2